Weather in Smarde

Latvia     56°57′09″N   23°20′11″E
temp.,
°C
wind,
m/s
gust,
m/s
humid.,
%
clouds,
%
prec.,
mm/h
press.,
hPa
HPBL,
m
20 april, tue
tue2000:00+6ne247040 0.0 102169
03:00+6ese117088 0.0 102012
06:00+6nne1175100 0.0 101910
09:00+10ne236160 0.0 1018253
12:00+13ne344633 0.0 1017814
15:00+14nne343777 0.0 1015923
18:00+11nne3552100 0.0 1014455
21:00+7nne227584 0.0 101320
21 april, wed
wed2100:00+6ene1177100 0.0 101210
03:00+6s117993 0.0 101116
06:00+5sw11897 0.0 100910
09:00+9wsw1266100 0.0 1008286
12:00+14wsw124529 0.0 10071480
15:00+16wsw343121 0.0 10052359
18:00+15w45355 0.0 10042229
21:00+10wsw495676 0.0 1005364
22 april, thu
thu2200:00+6sw411765 0.0 1004378
03:00+5sw41177100 0.0 1004464
06:00+4sw4107882 0.0 1004490
09:00+6ssw596819 0.1 10041233
12:00+8ssw7115746 0.1 10041672
15:00+8ssw6126179 0.6 10041804
18:00+6sw7116746 0.1 10051295
21:00+3sw61079100 0.3 1006844
23 april, fri
fri2300:00+3sw598291 0.0 1005843
03:00+2ssw488589 0.1 1005815
06:00+2sw4890100 0.5 1004683
09:00+3wsw4894100 0.6 1005621
12:00+4wsw6980100 0.1 10061045
15:00+2w71393100 1.1 1008929
18:00+4w5971100 0.3 10101198
21:00+2w4108299 0.3 1011760
24 april, sat
sat2400:00+1w5991100 0.0 1010699
03:00+1w4994100 0.2 1009853
06:00+1w4897100 0.2 1008637
09:00+2nw378897 0.5 1008561
12:00+3wnw588893 0.7 1009791
15:00+5wnw687586 1.2 10101157
18:00+4nw487890 0.7 10111146
21:00+2wnw41084100 0.9 1012830